Weather History for KBUF - May, 2013

Change the Weather History Date:

Saturday, May 11, 2013

  Actual Average Record
Temperature  
Mean Temperature 54 °F 55 °F  
Max Temperature 61 °F 65 °F 89 °F (1979)
Min Temperature 46 °F 46 °F 29 °F (1907)
Degree Days  
Heating Degree Days 11 10  
Month to date heating degree days 20 128  
Since 1 July heating degree days 5878 6409  
Cooling Degree Days 0 0  
Month to date cooling degree days 13 0  
Year to date cooling degree days 13 3  
Moisture  
Dew Point 47 °F    
Average Humidity 87    
Maximum Humidity 93    
Minimum Humidity 80    
Precipitation  
Precipitation 0.14 in 0.10 in 1.20 in (1989)
Month to date precipitation 1.14 1.13  
Year to date precipitation 11.67 12.68  
Snow  
Snow 0.00 in 0.00 in T in (1963)
Month to date snowfall 0.0 0.2  
Since 1 July snowfall 58.8 94.6  
Snow Depth 0.00 in    
Sea Level Pressure  
Sea Level Pressure 29.75 in    
Wind  
Wind Speed 14 mph (SW)    
Max Wind Speed 24 mph    
Max Gust Speed 29 mph    
Visibility 6 miles    
Events Rain    
T = Trace of Precipitation, MM = Missing Value Source: NWS Daily Summary

Daily Weather History Graph

Daily Weather History Graph

Search for Another Location

Airport or City:

Trip Planner

Search our weather history database for the weather conditions in past years. The results will help you decide how hot, cold, wet, or windy it might be!

Date:

Astronomy

May. 11, 2013 Rise Set
Actual Time 5:56 AM EDT 8:27 PM EDT
Civil Twilight 5:23 AM EDT 8:59 PM EDT
Nautical Twilight 4:43 AM EDT 9:39 PM EDT
Astronomical Twilight 3:58 AM EDT 10:25 PM EDT
Moon 7:01 AM EDT (5/11) 10:06 PM EDT (5/11)
Length of Visible Light 15h 35m
Length of Day
14h 31m
Waxing Crescent, 3% of the Moon is Illuminated
May 11
Waxing Crescent
May 18
First Quarter
May 25
Full
May 31
Last Quarter
Jun 8
New

Hourly Weather History & Observations

Time (EDT) Temp. Windchill Dew Point Humidity Pressure Visibility Wind Dir Wind Speed Gust Speed Precip Events Conditions
12:54 AM 60.1 °F - 57.0 °F 90% 29.70 in 10.0 mi SW 11.5 mph - 0.00 in Rain Light Rain
1:15 AM 59.0 °F - 55.4 °F 88% 29.70 in 10.0 mi WSW 13.8 mph 21.9 mph 0.00 in   Overcast
1:37 AM 57.2 °F - 55.4 °F 94% 29.70 in 6.0 mi WSW 12.7 mph - 0.00 in   Overcast
1:45 AM 57.2 °F - 55.4 °F 94% 29.69 in 4.0 mi WSW 13.8 mph - 0.00 in   Overcast
1:54 AM 57.0 °F - 55.9 °F 96% 29.68 in 3.0 mi SW 9.2 mph - 0.00 in   Overcast
2:04 AM 57.2 °F - 55.4 °F 94% 29.69 in 2.5 mi WSW 11.5 mph - N/A   Overcast
2:40 AM 57.2 °F - 55.4 °F 94% 29.68 in 1.8 mi SW 11.5 mph - 0.03 in Rain Heavy Rain
2:46 AM 57.2 °F - 55.4 °F 94% 29.68 in 2.0 mi SW 11.5 mph - 0.08 in Rain Light Rain
2:54 AM 55.9 °F - 55.0 °F 97% 29.68 in 2.5 mi SW 16.1 mph 20.7 mph 0.08 in Rain Light Rain
3:13 AM 53.6 °F - 51.8 °F 94% 29.68 in 3.0 mi SW 16.1 mph 23.0 mph 0.00 in Rain Rain
3:54 AM 51.1 °F - 50.0 °F 96% 29.70 in 3.0 mi SW 16.1 mph 25.3 mph 0.03 in Rain Light Rain
4:54 AM 48.9 °F - 46.9 °F 93% 29.71 in 3.0 mi SW 15.0 mph 24.2 mph 0.02 in   Overcast
5:35 AM 46.4 °F 40.4 °F 46.4 °F 100% 29.72 in 1.8 mi SW 13.8 mph 21.9 mph N/A   Overcast
5:43 AM 46.4 °F 40.1 °F 46.4 °F 100% 29.73 in 1.0 mi SW 15.0 mph 26.5 mph 0.00 in   Light Drizzle
5:54 AM 46.0 °F 39.3 °F 46.0 °F 100% 29.74 in 1.0 mi SW 16.1 mph 24.2 mph 0.00 in   Light Drizzle
6:45 AM 46.4 °F 40.1 °F 44.6 °F 93% 29.75 in 2.5 mi SW 15.0 mph - 0.00 in   Light Drizzle
6:54 AM 46.0 °F 39.3 °F 45.0 °F 96% 29.75 in 2.5 mi WSW 16.1 mph 24.2 mph 0.00 in   Light Drizzle
7:24 AM 46.4 °F 39.8 °F 44.6 °F 93% 29.75 in 1.0 mi SW 16.1 mph - 0.00 in   Light Drizzle
7:54 AM 46.0 °F 40.2 °F 45.0 °F 96% 29.76 in 1.0 mi WSW 12.7 mph 21.9 mph 0.00 in   Light Drizzle
8:29 AM 46.4 °F 41.5 °F 46.4 °F 100% 29.76 in 3.0 mi WSW 10.4 mph - 0.00 in   Light Drizzle
8:38 AM 46.4 °F 41.5 °F 46.4 °F 100% 29.76 in 8.0 mi West 10.4 mph - 0.00 in   Light Drizzle
8:54 AM 46.9 °F - 45.0 °F 93% 29.77 in 10.0 mi WSW 11.5 mph - 0.00 in   Overcast
9:27 AM 46.4 °F 41.1 °F 44.6 °F 93% 29.77 in 10.0 mi WSW 11.5 mph - 0.00 in   Light Drizzle
9:54 AM 46.4 °F 40.1 °F 44.6 °F 93% 29.77 in 10.0 mi SW 15.0 mph - N/A   Overcast
10:54 AM 48.0 °F - 45.0 °F 89% 29.78 in 10.0 mi WSW 13.8 mph - N/A   Overcast
11:54 AM 46.9 °F - 44.1 °F 90% 29.79 in 10.0 mi WSW 13.8 mph 25.3 mph 0.00 in   Overcast
12:54 PM 46.9 °F - 43.0 °F 86% 29.79 in 10.0 mi SW 15.0 mph - N/A   Overcast
1:17 PM 46.4 °F 39.5 °F 42.8 °F 87% 29.79 in 10.0 mi SW 17.3 mph - N/A   Overcast
1:54 PM 48.0 °F - 43.0 °F 83% 29.79 in 10.0 mi SW 13.8 mph - N/A   Overcast
2:54 PM 48.0 °F - 44.1 °F 86% 29.80 in 10.0 mi SW 13.8 mph - N/A   Overcast
3:26 PM 48.2 °F - 42.8 °F 82% 29.79 in 10.0 mi SW 18.4 mph 24.2 mph N/A   Overcast
3:44 PM 48.2 °F - 42.8 °F 82% 29.78 in 10.0 mi SW 19.6 mph 28.8 mph N/A   Overcast
3:54 PM 48.0 °F - 43.0 °F 83% 29.80 in 10.0 mi SW 24.2 mph 28.8 mph N/A   Overcast
4:54 PM 48.0 °F - 42.1 °F 80% 29.79 in 7.0 mi SW 19.6 mph 27.6 mph N/A   Overcast
5:54 PM 48.0 °F - 42.1 °F 80% 29.78 in 7.0 mi SW 18.4 mph 25.3 mph N/A   Overcast
6:54 PM 46.9 °F - 42.1 °F 83% 29.78 in 8.0 mi SW 12.7 mph 24.2 mph N/A   Mostly Cloudy
7:54 PM 46.0 °F 39.9 °F 42.1 °F 86% 29.78 in 6.0 mi SW 13.8 mph 26.5 mph N/A   Overcast
8:17 PM 46.4 °F 41.1 °F 42.8 °F 87% 29.77 in 7.0 mi SW 11.5 mph 24.2 mph N/A   Overcast
8:54 PM 46.9 °F - 43.0 °F 86% 29.78 in 10.0 mi WSW 11.5 mph 19.6 mph N/A   Overcast
9:54 PM 46.9 °F - 43.0 °F 86% 29.77 in 9.0 mi SW 10.4 mph - N/A   Mostly Cloudy
10:54 PM 46.9 °F - 44.1 °F 90% 29.75 in 7.0 mi SSW 5.8 mph - N/A   Mostly Cloudy
11:22 PM 46.4 °F 43.5 °F 44.6 °F 93% 29.72 in 7.0 mi South 5.8 mph - N/A   Mostly Cloudy
11:54 PM 48.0 °F - 45.0 °F 89% 29.72 in 7.0 mi SSW 6.9 mph - N/A   Mostly Cloudy